sat.trackr.live / text

‹ back to catalog

ONEWEB-0516

NORAD 54134 · 2022-138X

PAYLOAD ACTIVE UNKNOWN

§ Identity

Operator
Country
UK
Launch date
2022-10-22
Launch site
SRILR
Launch vehicle
Mass (kg)
RCS (m²)

Purposes: comms

External: N2YO · Heavens-Above · Gunter

§ Orbital elements

Epoch: 2026-09-20T01:40:34.341888Z

Period
109.11 min
Inclination
87.9103°
Eccentricity
0.0001785
Mean motion
13.19726130 rev/d
Perigee alt
1,184.4 km
Apogee alt
1,187.1 km
Semi-major
7,563.9 km
B*
6.5370e-5
RAAN
286.0663°
Arg perigee
89.6024°
Mean anomaly
270.5313°
Rev number
18,934

§ Raw data

ONEWEB-05161 54134U 22138X   26263.06984192  .00000039  00000+0  65370-4 0  99972 54134  87.9103 286.0663 0001785  89.6024 270.5313 13.19726130189347

JSON: /api/v1/satellites/54134 · /tle

For live sub-satellite position, see the globe view (requires WebGL).

§ Visibility from observer

Set your observer location to see the next 7 days of passes ≥ 10°. The values pass through the URL so the page stays shareable.

No JS? Fill the form by hand. The geolocation button needs JavaScript.